Total_Precipitation_Accumulation
0.02 0.07 0.21 0.23 0.24 0.22 0.20 0.20 0.18 0.16 0.16 0.20 0.24 0.26 0.27 0.25 0.23 0.20 0.21 0.20 0.21 0.23 0.26 0.31 0.32 0.30 0.27 0.25 0.22 0.16 0.10 0.09 0.09 0.09 0.09 0.10 0.12 0.12 0.12 0.12 0.14 0.16 0.19
0.02 0.08 0.20 0.22 0.24 0.23 0.22 0.22 0.21 0.18 0.18 0.24 0.31 0.31 0.27 0.24 0.23 0.22 0.18 0.18 0.19 0.22 0.29 0.32 0.26 0.19 0.14 0.11 0.08 0.07 0.06 0.05 0.03 0.02 0.01 0.02 0.05 0.07 0.07 0.07 0.09 0.13 0.14
0.02 0.08 0.19 0.23 0.25 0.23 0.22 0.19 0.18 0.18 0.22 0.29 0.36 0.35 0.30 0.23 0.21 0.21 0.18 0.18 0.19 0.22 0.25 0.24 0.18 0.14 0.10 0.09 0.05 0.03 0.02 0.02 0.01 0.00 0.01 0.02 0.03 0.04 0.04 0.05 0.07 0.09 0.12
0.03 0.07 0.15 0.25 0.26 0.24 0.23 0.22 0.23 0.24 0.27 0.31 0.38 0.37 0.33 0.28 0.27 0.25 0.22 0.18 0.16 0.16 0.16 0.18 0.14 0.10 0.08 0.06 0.04 0.02 0.02 0.02 0.01 0.01 0.03 0.02 0.03 0.05 0.06 0.06 0.09 0.10 0.12
0.08 0.11 0.18 0.25 0.29 0.27 0.26 0.23 0.26 0.28 0.31 0.35 0.39 0.38 0.32 0.30 0.29 0.27 0.24 0.18 0.15 0.14 0.14 0.15 0.13 0.09 0.06 0.04 0.04 0.03 0.02 0.02 0.01 0.01 0.02 0.03 0.03 0.07 0.09 0.09 0.12 0.13 0.12
0.13 0.19 0.27 0.29 0.31 0.32 0.30 0.27 0.27 0.30 0.35 0.39 0.42 0.41 0.34 0.32 0.33 0.29 0.24 0.16 0.14 0.13 0.13 0.14 0.14 0.10 0.07 0.05 0.04 0.03 0.02 0.02 0.01 0.01 0.01 0.02 0.03 0.06 0.08 0.10 0.13 0.15 0.15
0.18 0.26 0.34 0.36 0.38 0.38 0.37 0.39 0.37 0.38 0.42 0.47 0.49 0.45 0.41 0.38 0.36 0.31 0.25 0.15 0.12 0.11 0.14 0.13 0.14 0.12 0.10 0.08 0.06 0.04 0.03 0.02 0.01 0.01 0.01 0.02 0.03 0.06 0.08 0.10 0.14 0.16 0.16
0.35 0.43 0.47 0.47 0.43 0.42 0.41 0.42 0.40 0.44 0.49 0.52 0.51 0.50 0.48 0.43 0.40 0.37 0.29 0.19 0.15 0.15 0.18 0.16 0.15 0.14 0.12 0.10 0.08 0.06 0.04 0.02 0.01 0.01 0.01 0.02 0.03 0.09 0.11 0.11 0.13 0.14 0.14
0.70 0.75 0.70 0.62 0.52 0.49 0.45 0.43 0.40 0.43 0.49 0.54 0.55 0.54 0.49 0.46 0.44 0.41 0.33 0.24 0.20 0.21 0.21 0.18 0.15 0.14 0.14 0.12 0.10 0.08 0.05 0.03 0.02 0.01 0.01 0.02 0.05 0.11 0.14 0.15 0.17 0.17 0.16
1.05 1.07 0.98 0.84 0.69 0.62 0.55 0.46 0.42 0.41 0.44 0.48 0.50 0.47 0.42 0.39 0.39 0.37 0.28 0.25 0.23 0.23 0.21 0.17 0.15 0.15 0.13 0.12 0.12 0.09 0.06 0.04 0.02 0.01 0.02 0.03 0.09 0.17 0.20 0.21 0.23 0.21 0.18
1.26 1.29 1.25 1.07 0.87 0.73 0.64 0.50 0.44 0.42 0.42 0.43 0.44 0.38 0.38 0.38 0.38 0.32 0.23 0.18 0.19 0.22 0.20 0.19 0.17 0.16 0.14 0.12 0.12 0.11 0.09 0.06 0.03 0.02 0.03 0.06 0.13 0.18 0.18 0.18 0.17 0.15 0.13
1.34 1.33 1.37 1.26 1.05 0.87 0.73 0.62 0.56 0.47 0.44 0.39 0.35 0.36 0.32 0.33 0.38 0.33 0.29 0.23 0.20 0.21 0.20 0.21 0.20 0.19 0.17 0.13 0.12 0.11 0.10 0.08 0.07 0.05 0.04 0.05 0.09 0.13 0.14 0.13 0.11 0.11 0.10
1.47 1.44 1.48 1.45 1.23 0.99 0.80 0.66 0.60 0.53 0.51 0.45 0.36 0.34 0.33 0.36 0.38 0.40 0.40 0.35 0.30 0.23 0.22 0.22 0.23 0.18 0.16 0.15 0.16 0.12 0.11 0.11 0.10 0.07 0.04 0.03 0.06 0.12 0.15 0.15 0.13 0.12 0.12
1.59 1.49 1.52 1.53 1.39 1.18 0.92 0.73 0.59 0.52 0.50 0.48 0.42 0.39 0.42 0.40 0.37 0.37 0.36 0.34 0.34 0.26 0.25 0.22 0.19 0.16 0.16 0.16 0.17 0.17 0.17 0.16 0.15 0.14 0.09 0.05 0.05 0.08 0.13 0.17 0.19 0.20 0.18
1.57 1.57 1.54 1.49 1.41 1.31 1.17 0.93 0.70 0.58 0.54 0.55 0.53 0.48 0.47 0.45 0.41 0.42 0.38 0.37 0.32 0.30 0.29 0.26 0.23 0.21 0.19 0.18 0.18 0.18 0.19 0.19 0.18 0.19 0.16 0.09 0.07 0.07 0.11 0.16 0.23 0.28 0.29
1.44 1.53 1.57 1.48 1.39 1.28 1.23 1.13 0.92 0.72 0.61 0.61 0.60 0.55 0.54 0.54 0.50 0.47 0.45 0.44 0.39 0.37 0.35 0.34 0.32 0.31 0.28 0.25 0.21 0.18 0.17 0.18 0.17 0.16 0.16 0.13 0.10 0.09 0.10 0.15 0.23 0.32 0.39
1.27 1.39 1.51 1.56 1.50 1.34 1.25 1.24 1.10 0.92 0.73 0.61 0.60 0.61 0.59 0.58 0.57 0.57 0.54 0.48 0.44 0.46 0.46 0.48 0.47 0.46 0.38 0.33 0.28 0.26 0.25 0.24 0.22 0.20 0.18 0.16 0.14 0.15 0.15 0.16 0.23 0.32 0.42
1.15 1.26 1.36 1.44 1.49 1.43 1.31 1.28 1.26 1.10 0.92 0.76 0.65 0.60 0.58 0.59 0.63 0.66 0.65 0.59 0.55 0.57 0.58 0.56 0.55 0.54 0.46 0.41 0.36 0.35 0.33 0.31 0.30 0.29 0.29 0.26 0.22 0.19 0.19 0.20 0.24 0.32 0.42
1.07 1.19 1.31 1.34 1.40 1.47 1.53 1.46 1.34 1.27 1.10 0.91 0.77 0.64 0.61 0.64 0.66 0.67 0.64 0.62 0.64 0.63 0.63 0.63 0.58 0.55 0.50 0.48 0.48 0.43 0.39 0.37 0.35 0.34 0.35 0.35 0.34 0.32 0.30 0.29 0.25 0.24 0.31
1.10 1.22 1.36 1.36 1.48 1.59 1.73 1.70 1.58 1.41 1.23 1.07 0.90 0.75 0.70 0.71 0.75 0.72 0.69 0.71 0.72 0.67 0.61 0.61 0.61 0.60 0.54 0.56 0.56 0.49 0.44 0.42 0.39 0.36 0.36 0.37 0.37 0.36 0.36 0.34 0.31 0.29 0.29
1.23 1.27 1.38 1.44 1.54 1.64 1.64 1.53 1.41 1.30 1.24 1.17 1.04 0.99 0.91 0.87 0.91 0.91 0.84 0.83 0.84 0.77 0.70 0.74 0.82 0.78 0.71 0.71 0.67 0.52 0.44 0.42 0.40 0.39 0.37 0.36 0.34 0.33 0.31 0.31 0.32 0.31 0.31
1.27 1.30 1.43 1.50 1.52 1.55 1.60 1.65 1.60 1.63 1.54 1.44 1.34 1.26 1.16 1.10 1.10 1.09 1.08 1.07 1.05 0.97 0.88 0.86 0.90 0.89 0.87 0.90 0.87 0.79 0.56 0.41 0.35 0.34 0.35 0.34 0.36 0.36 0.33 0.33 0.32 0.32 0.31
1.17 1.37 1.46 1.50 1.53 1.56 1.77 2.12 2.07 1.96 1.84 1.72 1.58 1.47 1.36 1.31 1.31 1.23 1.23 1.27 1.25 1.15 1.04 1.00 1.01 1.00 1.01 1.04 1.01 1.03 0.80 0.54 0.40 0.34 0.30 0.29 0.33 0.38 0.40 0.40 0.38 0.35 0.31
1.01 1.26 1.54 1.61 1.69 1.79 1.98 2.19 2.24 2.00 1.79 1.70 1.68 1.66 1.60 1.47 1.43 1.41 1.39 1.36 1.35 1.31 1.19 1.15 1.16 1.14 1.12 1.09 1.07 0.97 0.89 0.74 0.64 0.48 0.35 0.31 0.30 0.31 0.36 0.40 0.40 0.40 0.40
0.94 1.12 1.38 1.60 1.67 1.84 1.99 2.09 2.24 2.04 1.77 1.74 1.75 1.69 1.67 1.58 1.46 1.44 1.42 1.37 1.29 1.25 1.24 1.23 1.20 1.17 1.09 1.02 0.98 0.94 0.89 0.75 0.64 0.60 0.45 0.33 0.31 0.28 0.28 0.32 0.36 0.39 0.42
0.86 0.96 1.14 1.32 1.41 1.53 1.69 1.88 2.04 2.04 1.92 1.79 1.70 1.63 1.59 1.56 1.52 1.47 1.45 1.37 1.27 1.19 1.15 1.16 1.17 1.14 1.09 1.03 0.97 0.94 0.92 0.85 0.72 0.68 0.64 0.50 0.43 0.35 0.32 0.33 0.36 0.38 0.42